TIME,DELAY(SENSOR),PRES,T(CTD),SAL,OXYGEN,RAWTEMP,T(OPTODE),TCPHASE,FLUOR,BETA(BETA700),BETA(BETA412),BETA(BETA440),CDOM,C(CSC),ED(ED412.40),ED(ED444.00),ED(ED489.70),ED(ED554.30),LU(LU411.80),LU(LU443.40),LU(LU489.60),LU(LU554.10),COMP,TILTX,TILTX(TILTY),CHECK
1356730764,5809,497.0400085449219000,6.0275998115539550,34.1627998352050800,59.5741882324218750,617.9177856445312000,6.0039038658142090,51.7065391540527340,52,102,88,80,79,15139,2147752073,2147422893,2148007049,2147874560,2147635885,2147070089,2148249042,2147202011,3516,4,13,18762
1356730891,5807,485.8800048828125000,6.1655998229980470,34.1502990722656250,64.3378067016601600,613.6718750000000000,6.1417160034179690,51.0259208679199200,52,103,92,80,79,15142,2147747565,2147421476,2148008082,2147870043,2147638116,2147069723,2148250861,2147200228,2784,4,13,37230
1356731008,5808,475.6300048828125000,6.2972002029418945,34.1398010253906250,68.9365234375000000,609.5629882812500000,6.2749061584472660,50.3837699890136700,52,105,88,81,81,15140,2147747977,2147419730,2148005494,2147871533,2147633782,2147071259,2148248338,2147200603,2777,4,13,33616
1356731135,5809,464.7799987792969000,6.3727002143859860,34.1338996887207000,72.6416625976562500,607.1000976562500000,6.3546681404113770,49.8922615051269500,50,104,88,80,79,15142,2147750875,2147423625,2148006070,2147873901,2147634550,2147076141,2148250486,2147201426,1662,4,13,29188
1356731276,5808,453.2600097656250000,6.5124001502990720,34.1198005676269500,78.4045791625976600,602.8165893554688000,6.4932417869567870,49.1385307312011700,51,103,89,80,79,15143,2147749165,2147422948,2148006272,2147873846,2147632740,2147074496,2148255030,2147202066,1596,4,13,9241
1356731415,5811,442.6900024414062500,6.6925001144409180,34.1214981079101560,81.5838928222656200,597.5562133789062000,6.6631832122802730,48.6899490356445300,52,105,86,80,79,15139,2147750619,2147422738,2148006902,2147873453,2147631872,2147078153,2148245312,2147202230,1761,4,13,60088
1356731586,5810,430.0400085449219000,6.9045000076293945,34.1214981079101560,86.0940399169921900,590.6630859375000000,6.8854689598083500,48.0681800842285160,52,103,89,80,78,15140,2147749001,2147423945,2148005613,2147874048,2147627812,2147074194,2148244260,2147202843,1135,4,13,64818
1356731704,5804,419.1499938964844000,7.1329998970031740,34.1239013671875000,89.8892135620117200,583.6436767578125000,7.1113781929016110,47.5362510681152340,52,105,87,79,78,15139,2147748443,2147421558,2148005193,2147873974,2147632329,2147076516,2148247305,2147199817,1219,4,13,15233
1356731819,5803,408.3500061035156000,7.2923002243041990,34.1371002197265600,91.1082534790039000,578.6265258789062000,7.2725720405578610,47.3212394714355500,51,105,87,80,78,15141,2147746185,2147424448,2148002870,2147871506,2147626185,2147078802,2148239533,2147200758,1281,4,13,9597
1356731948,5808,396.9100036621094000,7.5128002166748050,34.1222000122070300,98.4424285888671900,571.5159912109375000,7.5006351470947270,46.4103012084960940,51,105,90,80,77,15140,2147743478,2147420790,2148008265,2147873161,2147627145,2147081389,2148245394,2147199332,411,4,13,8395
1356732075,5807,386.8599853515625000,7.7740001678466800,34.1114997863769500,106.1811981201171900,561.1917114257812000,7.8309879302978520,45.4368400573730500,50,104,86,80,78,15140,2147744548,2147425289,2148006765,2147872630,2147623469,2147078317,2148237988,2147197220,3317,4,13,12257
1356732228,5806,376.0799865722656000,8.0027999877929690,34.1080017089843750,119.9114990234375000,556.3438720703125000,7.9857878684997560,43.9980201721191400,51,103,86,80,76,15139,2147741504,2147424466,2148007113,2147873152,2147624585,2147088073,2148235849,2147198829,2303,3,13,29804
1356732391,5807,364.3800048828125000,8.2222003936767580,34.1054000854492200,126.7944030761718800,549.5266113281250000,8.2031478881835940,43.2365303039550800,50,106,86,79,76,15137,2147740699,2147423250,2148006628,2147874660,2147622537,2147082322,2148237083,2147204105,1559,4,13,41214
1356732551,5810,350.1799926757812500,8.5139999389648440,34.1004981994628900,139.6645965576172000,540.1239013671875000,8.5023117065429690,41.9333000183105500,51,104,89,81,76,15138,2147737298,2147423606,2148006866,2147876580,2147619538,2147094043,2148239862,2147204717,2616,4,13,10726
1356732654,5806,339.2200012207031000,8.7777996063232420,34.1006011962890600,148.9288940429687500,531.7932739257812000,8.7667751312255860,41.0127105712890600,50,105,89,81,74,15139,2147741211,2147421458,2148008109,2147872539,2147621046,2147094034,2148230518,2147200091,2506,4,13,39183
1356732757,5808,328.1700134277344000,9.0768995285034180,34.1041984558105500,154.8325042724609400,522.3308715820312000,9.0665130615234380,40.3738784790039060,50,104,87,79,73,15136,2147739364,2147423085,2148007926,2147873600,2147620370,2147095122,2148232950,2147203840,3269,3,13,32687
1356732876,5810,316.6300048828125000,9.2681999206542970,34.1006011962890600,163.5932006835937500,516.3286132812500000,9.2562999725341800,39.5938415527343750,50,105,87,82,74,15137,2147738130,2147424896,2148009920,2147872402,2147619602,2147095616,2148230372,2147203099,47,4,13,57611
1356733003,5807,305.5899963378906000,9.5524997711181640,34.1058998107910160,170.9165954589843800,506.3100891113281000,9.5724773406982420,38.8790016174316400,49,105,86,79,74,15137,2147736585,2147424164,2148010258,2147872667,2147617526,2147103387,2148230784,2147198052,830,4,13,60006
1356733132,5809,294.5899963378906000,10.0129003524780270,34.1170005798339840,176.8267974853515600,492.2080078125000000,10.0163297653198240,38.2181701660156250,49,104,88,80,73,15137,2147735424,2147423844,2148015250,2147872384,2147616493,2147098880,2148230217,2147205677,470,4,13,59080
1356733283,5809,283.6499938964844000,10.3501996994018550,34.1200981140136700,184.9429016113281200,482.5056152343750000,10.3209199905395500,37.4975891113281250,49,107,90,81,71,15135,2147736704,2147426825,2148023872,2147871158,2147612955,2147101860,2148236854,2147200429,1002,4,14,27788
1356733487,5807,273.1300048828125000,11.0404996871948240,34.1461982727050800,195.2572937011718800,458.9591064453125000,11.0576200485229500,36.4348106384277340,49,108,88,80,71,15133,2147732644,2147429741,2148032420,2147872768,2147607990,2147112886,2148229622,2147203200,1509,4,14,14948
1356733650,5808,262.1799926757812500,11.8422002792358400,34.1474990844726560,205.2588043212890600,433.0712890625000000,11.8638095855712890,35.4014396667480500,48,103,89,79,68,15137,2147731547,2147434413,2148041024,2147874806,2147606738,2147116333,2148229531,2147207414,2512,3,13,51191
1356733797,5810,249.1100006103515600,13.0601997375488280,34.2117004394531250,208.5348052978515600,394.0816955566406000,13.0715198516845700,34.5935897827148440,49,106,88,80,68,15132,2147727963,2147442459,2148060992,2147871926,2147598966,2147126893,2148233005,2147210166,272,4,14,50375
1356733900,5805,237.7500000000000000,13.4370002746582030,34.2532005310058600,208.4333953857422000,381.3499145507812500,13.4644298553466800,34.4027404785156250,49,105,89,80,69,15132,2147727040,2147454317,2148090697,2147872713,2147596525,2147140416,2148248530,2147210002,697,3,14,18739
1356734003,5805,226.8999938964843800,14.5032997131347660,34.3427009582519500,207.1779937744140600,348.5390014648437500,14.4741802215576170,33.9771499633789060,50,103,85,80,68,15132,2147728996,2147466203,2148129901,2147872082,2147595538,2147150025,2148260160,2147213238,1033,3,14,20117
1356734133,5810,217.1699981689453000,14.8563995361328120,34.3834991455078100,208.3592987060547000,336.0018920898437500,14.8590898513793950,33.7213897705078100,49,103,89,79,67,15130,2147730624,2147487323,2148174464,2147873078,2147590756,2147168822,2148282093,2147216146,2751,3,14,45905
1356734431,5806,205.3699951171875000,16.2949008941650400,34.5378990173339840,207.5688934326172000,289.5769042968750000,16.2810592651367200,33.0854110717773440,50,104,87,80,65,15129,2147730989,2147526052,2148259675,2147873362,2147587867,2147194139,2148317302,2147217179,3199,3,14,53907
1356734546,5808,198.1999969482422000,16.8187999725341800,34.6218986511230500,210.9322967529297000,272.3790893554687500,16.8068408966064450,32.6488304138183600,48,103,86,81,65,15125,2147737033,2147561837,2148345517,2147870665,2147587446,2147224978,2148350838,2147221714,853,3,15,36337
1356734613,5810,193.6499938964843800,17.1671009063720700,34.6633987426757800,211.8153991699218800,260.1098022460937500,17.1817302703857420,32.4257583618164060,50,103,87,80,65,15123,2147738761,2147590518,2148398491,2147871789,2147590052,2147241645,2148375414,2147224978,1190,3,14,25655
1356734670,5808,189.6300048828125000,17.4431991577148440,34.7004013061523440,212.4344940185547000,252.0926971435547000,17.4266300201416000,32.2784996032714840,50,104,88,81,66,15125,2147743616,2147615067,2148452854,2147874340,2147588141,2147259437,2148397741,2147225572,788,3,14,24271
1356734725,5807,185.7200012207031200,17.5837993621826170,34.7216987609863300,212.8352966308593800,246.6170959472656200,17.5938701629638670,32.1793708801269500,50,105,85,81,66,15121,2147747136,2147619200,2148437622,2147873380,2147587684,2147259922,2148392822,2147224548,3211,2,15,9843
1356734780,5805,181.9900054931640600,18.2247009277343750,34.7990989685058600,211.2906951904297000,226.4035034179687500,18.2111701965332030,31.9824790954589840,53,104,86,81,64,15119,2147757138,2147670070,2148551689,2147872886,2147592576,2147296521,2148444772,2147231744,3128,3,15,53260
1356734847,5809,178.0099945068359400,18.3869991302490230,34.8256988525390600,212.0137939453125000,220.9813995361328000,18.3767509460449220,31.8675193786621100,53,104,91,80,65,15116,2147765540,2147708964,2148627035,2147876608,2147593892,2147321993,2148487872,2147236516,3141,2,15,39287
1356734914,5808,174.2799987792968800,18.6357002258300780,34.8638000488281250,211.6473999023437500,211.5581970214843800,18.6645298004150400,31.7573204040527340,54,105,87,81,63,15116,2147777554,2147758006,2148712292,2147873682,2147599158,2147352566,2148526180,2147238564,2940,2,16,26366
1356734989,5808,171.1000061035156200,19.0676994323730470,34.9193992614746100,212.0377960205078000,199.4248046875000000,19.0351505279541000,31.5699100494384770,56,105,90,80,64,15115,2147787456,2147790409,2148781595,2147875382,2147601718,2147372224,2148552914,2147239469,3537,2,15,37985
1356735140,5809,167.3300018310547000,19.4512004852294920,34.9799003601074200,214.0829010009765600,186.7509002685547000,19.4224090576171880,31.2870101928710940,58,110,87,80,64,15113,2147802331,2147846555,2148871945,2147874770,2147605312,2147409718,2148592320,2147241929,2538,2,15,2191
1356735323,5808,162.8099975585937500,19.9888992309570300,35.0503997802734400,214.9261932373047000,169.0711059570312500,19.9629192352294920,31.0034008026123050,60,106,89,81,63,15106,2147834724,2147943908,2149041792,2147876772,2147620461,2147469257,2148675474,2147250102,910,2,15,45768
1356735438,5807,158.9900054931640600,20.1585006713867200,35.0761985778808600,216.8421020507812500,162.9873046875000000,20.1490192413330080,30.8208503723144530,63,107,87,80,64,15105,2147873170,2148046820,2149226898,2147877056,2147632118,2147532781,2148758546,2147255744,700,2,15,8846
1356735541,5809,154.8399963378906200,20.3514003753662100,35.0974006652832000,216.9272003173828000,156.5498962402343800,20.3460006713867200,30.7306995391845700,66,109,90,80,64,15095,2147893558,2148086793,2149274496,2147877193,2147642294,2147561645,2148785728,2147258816,1014,2,16,61203
1356735632,5810,150.5200042724609400,20.5669002532959000,35.1250000000000000,218.0231018066406200,149.4777069091797000,20.5625095367431640,30.5795707702636720,67,112,89,80,63,15092,2147943286,2148193709,2149439030,2147879899,2147659721,2147615899,2148856969,2147263579,767,2,15,30974
1356735711,5807,146.1000061035156200,20.7544994354248050,35.1441993713378900,218.1392059326172000,143.5877990722656200,20.7428894042968750,30.4958591461181640,71,109,87,80,62,15093,2148051373,2148442761,2149877851,2147880621,2147705846,2147767442,2149066386,2147281600,1421,2,16,14051
1356735778,5807,142.6600036621093800,20.9542999267578120,35.1645011901855500,218.2335968017578000,137.3278961181640600,20.9347000122070300,30.4082107543945300,73,115,89,81,65,15085,2148131931,2148605449,2150136978,2147884105,2147738550,2147850980,2149183204,2147288393,1423,2,16,64234
1356735869,5808,138.4499969482422000,21.1259002685546880,35.1772994995117200,218.0856018066406200,131.8527984619140600,21.1025295257568360,30.3438301086425780,80,113,89,81,64,15082,2148250779,2148827273,2150489645,2147889142,2147788562,2147979620,2149333248,2147299346,1246,2,15,30866
1356735950,5810,134.9299926757812500,21.2064990997314450,35.1869010925293000,218.9418029785156200,128.7680053710937500,21.1971206665039060,30.2592201232910160,80,115,89,83,63,15075,2148347510,2148985545,2150714340,2147890788,2147823561,2148044982,2149400877,2147308891,1598,2,15,10403
1356736041,5805,130.7200012207031200,21.2875995635986330,35.1940994262695300,219.3520050048828000,125.2958984375000000,21.3036193847656250,30.1927108764648440,82,114,89,83,63,15078,2148433892,2149081856,2150799378,2147895332,2147858843,2148106203,2149473042,2147319378,1919,2,15,53578
1356736132,5806,126.5899963378906200,21.3997001647949220,35.2037010192871100,220.2427978515625000,122.3907012939453100,21.3927497863769530,30.1092491149902340,83,114,88,82,62,15071,2148766866,2149712731,2151806381,2147905398,2148003794,2148445284,2149929846,2147352457,1864,2,16,42034
1356736223,5810,122.3899993896484400,21.4482994079589840,35.2064018249511700,220.5173950195312500,120.7575988769531200,21.4428691864013670,30.0737800598144530,85,116,91,81,62,15071,2149058514,2150170304,2152472822,2147918363,2148124635,2148681499,2150205421,2147373485,1427,2,15,15383
1356736304,5808,118.3099975585937500,21.5018005371093750,35.2074012756347660,220.6497039794922000,119.5375976562500000,21.4803199768066400,30.0512008666992200,84,116,93,81,62,15070,2149448018,2150780617,2153359323,2147931638,2148281801,2148994550,2150591524,2147409206,1213,2,15,30030
1356736383,5811,114.9800033569336000,21.6490001678466800,35.2177009582519500,221.1627960205078000,114.0447006225586000,21.6489505767822270,29.9536800384521500,94,119,91,81,62,15058,2149846153,2151332352,2154106038,2147947291,2148444589,2149270345,2150922505,2147439579,1423,2,15,11568
1356736498,5806,111.1699981689453100,21.7835998535156250,35.2261009216308600,222.5332946777343800,109.8382034301757800,21.7781600952148440,29.8302593231201170,106,119,88,83,61,15046,2150384795,2152048749,2155091876,2147966107,2148642038,2149595401,2151320246,2147473353,272,2,16,33112
1356736625,5810,106.6299972534179700,21.8327999114990230,35.2277984619140600,223.5158996582031200,107.9626998901367200,21.8357791900634770,29.7569808959960940,109,119,88,82,62,15038,2151306459,2153230509,2156667108,2148006829,2149002998,2150123538,2151935424,2147537152,3344,2,16,61775
1356736716,5808,102.4000015258789000,22.0709991455078120,35.2280006408691400,225.5765991210937500,100.8203964233398400,22.0553302764892580,29.5627403259277340,120,122,89,82,61,15020,2152443629,2154646061,2158430729,2148055670,2149410569,2150707309,2152580050,2147594624,2927,2,16,34226
1356736807,5809,98.5999984741211000,22.1844997406005860,35.2326011657714840,227.1475067138672000,96.7867889404296900,22.1793899536132800,29.4341201782226560,127,124,90,84,62,15013,2153837513,2156351067,2160561581,2148114468,2149914112,2151364553,2153327890,2147675593,2988,2,15,54066
1356736862,5811,96.3700027465820300,22.2866992950439450,35.2336997985839840,227.7709960937500000,94.3402862548828100,22.2546691894531250,29.3725109100341800,135,126,90,83,61,14993,2154788187,2157444004,2161734034,2148152237,2150250596,2151779373,2153734637,2147724278,2984,2,16,59674
1356736919,5816,94.1800003051757800,22.3171005249023440,35.2350006103515600,228.3072052001953000,92.6984710693359400,22.3051891326904300,29.3254909515380860,142,128,89,83,62,14988,2156027026,2158885997,2163424704,2148200676,2150675885,2152297947,2154295908,2147787126,18,2,15,20512
1356736974,5811,92.1299972534179700,22.4281997680664060,35.2281990051269500,228.6907958984375000,89.6792984008789000,22.3981399536132800,29.2684097290039060,143,127,92,83,61,14981,2157494098,2160640841,2165448694,2148262957,2151157421,2152894683,2154910125,2147861202,173,2,15,25234
1356737029,5805,90.3700027465820300,22.5135002136230470,35.1957015991210940,230.9490966796875000,86.4796371459961000,22.4966697692871100,29.1194496154785160,149,124,92,83,63,14973,2158863451,2162223341,2167133193,2148318198,2151626413,2153471058,2155509769,2147925138,429,2,15,4820
1356737084,5806,88.9100036621093800,22.6606006622314450,35.1832008361816400,232.8041992187500000,83.0124130249023400,22.6034908294677730,28.9876194000244140,157,122,88,83,61,14966,2159741037,2163184457,2168058870,2148338706,2151940306,2153835108,2155904950,2147971245,3489,2,16,55110
1356737163,5807,87.5199966430664000,22.6917991638183600,35.1846008300781250,235.2281951904297000,80.4919586181640600,22.6811599731445300,28.8423099517822270,148,122,92,84,62,14964,2161004809,2164638829,2169566381,2148410048,2152321947,2154268672,2156326482,2148024905,2980,2,16,31696
1356737277,5811,84.8099975585937500,22.9023990631103500,35.1888999938964840,238.4960021972656200,73.9123001098632800,22.8840503692626950,28.6088008880615230,146,123,89,84,60,14966,2164344658,2168287552,2173077220,2148545435,2153525156,2155647734,2157624082,2148188306,3409,1,16,16851
1356737332,5805,83.3700027465820300,23.2024002075195300,35.2038993835449200,238.3670959472656200,63.5143013000488300,23.2050399780273440,28.4840908050537100,138,125,90,83,61,14963,2165811364,2169921746,2174535241,2148585837,2154109549,2156252169,2158153654,2148249124,2839,2,16,8338
1356737687,5808,81.6699981689453100,24.1970005035400400,35.2490997314453100,238.9803924560547000,32.7733802795410160,24.1568393707275400,28.0730800628662100,94,126,93,85,58,14973,2169247012,2173833106,2178025088,2148723017,2156158939,2158448256,2159874477,2148438080,1193,2,16,54564
1356737874,5807,78.8700027465820300,24.4818992614746100,35.2868003845214840,238.2684936523437500,23.3311100006103500,24.4501094818115230,27.9882202148437500,83,126,94,86,59,14977,2172361618,2177236370,2181499364,2148915894,2158312978,2160818185,2161963821,2148666368,417,1,15,26227
1356737929,5809,77.0199966430664000,24.5102996826171880,35.2902984619140600,238.1047973632812500,21.6866397857666000,24.5012302398681640,27.9752693176269530,82,126,94,83,57,14982,2173959241,2178943250,2183085129,2149064832,2159918637,2162492269,2163297819,2148799625,45,1,15,56577
1356737996,5808,74.9300003051757800,24.5608997344970700,35.2939987182617200,237.9570007324218800,19.9459896087646500,24.5553607940673830,27.9604301452636720,76,122,92,85,57,14986,2175828717,2181213696,2185370541,2149217792,2161930578,2164633179,2165025819,2148977901,2883,1,16,24183
1356738063,5811,72.9300003051757800,24.5778999328613280,35.2943000793457000,237.7982025146484400,19.3600292205810550,24.5735893249511720,27.9602603912353500,73,121,91,84,57,14986,2177981293,2183800192,2188039643,2149430125,2164333339,2167116123,2166857718,2149170715,2596,1,16,54085
1356738152,5808,69.8300018310546900,24.5865001678466800,35.2951011657714840,238.0872039794922000,19.0363693237304700,24.5836601257324220,27.9433498382568360,69,120,91,84,57,14988,2181684205,2188031350,2192247515,2149836800,2168824832,2171786194,2170303789,2149520173,2394,2,16,27607
1356738207,5807,67.2500000000000000,24.5877990722656250,35.2943992614746100,238.1217956542968800,18.9997806549072270,24.5847892761230470,27.9412803649902340,68,121,90,85,58,14987,2185332507,2192408877,2196849472,2150271286,2173001316,2176321974,2173779145,2149885833,2259,1,17,30654
1356738262,5806,64.6500015258789000,24.5960998535156250,35.2962989807128900,238.0565948486328000,18.6331405639648440,24.5962009429931640,27.9396800994873050,65,122,92,84,58,14983,2189579355,2197295981,2202051035,2150815040,2177620525,2181222089,2177414701,2150274450,2182,2,16,57518
1356738317,5809,62.0000000000000000,24.6047992706298830,35.2985000610351560,238.2648925781250000,18.4183502197265620,24.6028804779052730,27.9276199340820300,65,120,91,83,55,14980,2193698870,2201635858,2206326098,2151488118,2181949193,2185779373,2180921901,2150658368,2230,1,15,21013
1356738372,5807,59.3300018310546900,24.6096000671386720,35.2989997863769500,238.2516937255859400,18.2732906341552730,24.6074008941650400,27.9264106750488280,65,120,91,86,56,14979,2197979053,2206661092,2211548992,2152200886,2186513170,2190398317,2184146870,2151034258,2081,1,16,4141
1356738427,5813,56.6300010681152340,24.6133995056152340,35.3003005981445300,238.3430023193359400,18.1713008880615230,24.6105709075927730,27.9210700988769530,66,121,93,84,58,14981,2203568704,2212988114,2217985206,2153177545,2193399762,2197828982,2189875318,2151750326,1761,1,17,60802
1356738484,5808,53.6500015258789060,24.6215991973876950,35.3012008666992200,238.3273925781250000,17.8687896728515620,24.6199798583984380,27.9179801940917970,63,121,91,84,58,14979,2211701824,2222378953,2228195547,2154883346,2200364187,2205125193,2195406464,2152514541,1456,1,16,32961
1356738539,5808,50.7400016784668000,24.6387996673584000,35.3028984069824200,238.2960052490234400,17.2809600830078120,24.6382694244384770,27.9122505187988280,61,118,91,84,56,14981,2217786916,2228290011,2234263433,2156234230,2206363209,2211210715,2199835181,2153128594,986,1,16,54859
1356738594,5807,47.7900009155273440,24.6504001617431640,35.3026008605957000,238.2268981933593800,16.8476390838623050,24.6517601013183600,27.9100494384765620,61,119,92,85,51,14981,2226800228,2238359241,2245883483,2158932525,2213646317,2218677878,2205579017,2154086646,619,2,16,36880
1356738649,5808,44.7400016784668000,24.6523990631103500,35.3026008605957000,238.3464965820312500,16.7183208465576170,24.6557807922363280,27.9030303955078120,60,119,92,82,60,14979,2235245942,2246682313,2253808521,2161595318,2223682322,2229045421,2213371629,2155299602,546,1,16,5176
1356738704,5810,41.4900016784668000,24.6716995239257800,35.3023986816406250,238.3822937011718800,15.8919000625610350,24.6814994812011720,27.8910808563232420,59,118,93,85,55,14988,2244430637,2256730331,2264655168,2165024960,2234032932,2239574473,2221241938,2156704045,581,2,16,58513
1356738759,5807,38.2000007629394500,24.7402992248535160,35.3072013854980500,237.9564971923828000,13.9626197814941400,24.7415599822998050,27.8865108489990230,58,118,90,83,58,14982,2256088146,2269449060,2278139483,2170090358,2246476571,2252011995,2230283730,2158467172,825,2,16,15317
1356738816,5805,34.8800010681152340,24.7520999908447270,35.3089981079101560,237.8401031494140600,13.5274295806884770,24.7551097869873050,27.8863792419433600,57,117,89,83,58,14986,2266803757,2280160914,2289192704,2175967552,2259952685,2265417654,2240179858,2160637266,796,1,17,16520
1356738871,5806,31.7099990844726560,24.7604007720947270,35.3089981079101560,237.7805023193359400,13.1968803405761720,24.7653999328613280,27.8848991394042970,56,119,91,84,53,14988,2285711012,2301603474,2313381110,2185992713,2274206528,2279607917,2250819748,2163421778,677,1,16,32196
1356738926,5807,28.5000000000000000,24.7635002136230470,35.3096008300781250,237.8471069335937500,12.9844503402709960,24.7720203399658200,27.8794097900390620,55,121,93,83,61,14991,2291054674,2305303305,2317069769,2193204662,2289004964,2294325741,2261744969,2166290605,574,1,15,48592
1356738981,5807,25.3099994659423830,24.7728996276855470,35.3101997375488300,237.7996978759765600,12.6028604507446290,24.7838993072509770,27.8767795562744140,55,119,90,85,57,14991,2313191268,2328821897,2341650166,2207204516,2307426102,2311674002,2273950107,2169930752,716,1,15,31143
